Nome, AK

10:58 AM AKDT on April 29, 2017 (GMT -0800)
Nome

Weather History for PAOM - May, 2013

Change the Weather History Date:

Tuesday, May 28, 2013

  Actual Average Record
Temperature  
Mean Temperature 49 °F 42 °F  
Max Temperature 59 °F 49 °F 75 °F (1990)
Min Temperature 38 °F 35 °F 17 °F (1934)
Degree Days  
Heating Degree Days 16 23  
Month to date heating degree days 1000 807  
Since 1 July heating degree days 13741 13120  
Cooling Degree Days 0    
Month to date cooling degree days 0  
Year to date cooling degree days 0  
Moisture  
Dew Point 36 °F    
Average Humidity 0    
Maximum Humidity 0    
Minimum Humidity 0    
Precipitation  
Precipitation 0.00 in 0.02 in 0.76 in (1996)
Month to date precipitation 1.79 0.77  
Year to date precipitation 4.25 4.05  
Snow  
Snow 0.00 in 0.00 in 0.10 in (2000)
Month to date snowfall 10.8 2.2  
Since 1 July snowfall 65.7 75.3  
Snow Depth 0.00 in    
Sea Level Pressure  
Sea Level Pressure 29.91 in    
Wind  
Wind Speed 5 mph (WNW)    
Max Wind Speed 13 mph    
Max Gust Speed 14 mph    
Visibility 10 miles    
Events      
T = Trace of Precipitation, MM = Missing Value Source: NWS Daily Summary

Daily Weather History Graph

Daily Weather History Graph

Search for Another Location

Airport or City:

Trip Planner

Search our weather history database for the weather conditions in past years. The results will help you decide how hot, cold, wet, or windy it might be!

Date:

Astronomy

May. 28, 2013 Rise Set
Actual Time 4:59 AM AKDT 1:00 AM AKDT
Civil Twilight 3:31 AM AKDT 2:26 AM AKDT
Nautical Twilight Sun does not set Sun does not set
Astronomical Twilight Sun does not set Sun does not set
Moon 2:52 AM AKDT (5/28) 10:04 AM AKDT (5/28)
Length of Visible Light 22h 55m
Length of Day
20h 00m
Waning Gibbous, 81% of the Moon is Illuminated
May 28
Waning Gibbous
May 31
Last Quarter
Jun 8
New
Jun 16
First Quarter
Jun 23
Full

Hourly Weather History & Observations

Time (AKDT) Temp. Windchill Dew Point Humidity Pressure Visibility Wind Dir Wind Speed Gust Speed Precip Events Conditions
12:53 AM 46.0 °F 41.4 °F 36.0 °F 68% 29.86 in 10.0 mi North 9.2 mph - N/A   Scattered Clouds
1:53 AM 45.0 °F 43.5 °F 35.1 °F 68% 29.87 in 10.0 mi NNE 3.5 mph - N/A   Clear
2:53 AM 43.0 °F - 35.1 °F 74% 29.87 in 10.0 mi Calm Calm - N/A   Scattered Clouds
3:53 AM 37.9 °F - 33.1 °F 83% 29.88 in 10.0 mi Calm Calm - N/A   Clear
4:53 AM 39.9 °F - 35.1 °F 83% 29.88 in 10.0 mi Calm Calm - N/A   Scattered Clouds
5:53 AM 39.0 °F - 35.1 °F 86% 29.88 in 10.0 mi Calm Calm - N/A   Scattered Clouds
6:53 AM 41.0 °F - 35.1 °F 79% 29.89 in 10.0 mi Calm Calm - N/A   Scattered Clouds
7:53 AM 44.1 °F - 37.0 °F 76% 29.90 in 10.0 mi Calm Calm - N/A   Scattered Clouds
8:53 AM 39.9 °F 37.8 °F 36.0 °F 86% 29.90 in 10.0 mi ESE 3.5 mph - N/A   Mostly Cloudy
9:53 AM 46.0 °F 44.8 °F 37.0 °F 71% 29.90 in 9.0 mi SE 3.5 mph - N/A   Mostly Cloudy
10:53 AM 46.0 °F - 37.0 °F 71% 29.92 in 10.0 mi Calm Calm - N/A   Mostly Cloudy
11:53 AM 43.0 °F 38.8 °F 36.0 °F 76% 29.93 in 10.0 mi SSW 6.9 mph - N/A   Scattered Clouds
12:53 PM 48.9 °F - 37.0 °F 64% 29.94 in 10.0 mi SW 5.8 mph - N/A   Scattered Clouds
1:53 PM 50.0 °F - 37.0 °F 61% 29.94 in 10.0 mi WSW 10.4 mph - N/A   Mostly Cloudy
2:53 PM 51.1 °F - 37.9 °F 61% 29.94 in 10.0 mi West 11.5 mph - N/A   Scattered Clouds
3:53 PM 52.0 °F - 37.9 °F 59% 29.94 in 10.0 mi West 11.5 mph - N/A   Scattered Clouds
4:53 PM 53.1 °F - 37.0 °F 55% 29.94 in 10.0 mi West 10.4 mph - N/A   Scattered Clouds
5:53 PM 54.0 °F - 37.0 °F 53% 29.92 in 10.0 mi West 10.4 mph - N/A   Scattered Clouds
6:53 PM 55.0 °F - 36.0 °F 49% 29.92 in 10.0 mi West 11.5 mph - N/A   Scattered Clouds
7:53 PM 59.0 °F - 34.0 °F 39% 29.92 in 10.0 mi NE 5.8 mph - N/A   Clear
8:53 PM 59.0 °F - 36.0 °F 42% 29.92 in 10.0 mi Calm Calm - N/A   Scattered Clouds
9:53 PM 55.9 °F - 37.0 °F 49% 29.91 in 10.0 mi North 6.9 mph - N/A   Scattered Clouds
10:53 PM 53.1 °F - 37.0 °F 55% 29.91 in 10.0 mi North 5.8 mph - N/A   Scattered Clouds
11:53 PM 48.9 °F - 37.0 °F 64% 29.91 in 10.0 mi North 4.6 mph - N/A   Scattered Clouds